Terminal Aerodrome Forecast
Issued by NWS Twin Cities, MN

Home | Current Version | Previous Version | Graphics & Text | Print | Product List | Glossary On
Versions: 1 2 3 4 5 6 7 8 9 10 11 12 13 14 15 16 17 18 19
000
FTUS43 KMPX 282330
TAFSTC
TAF
KSTC 282330Z 2900/2924 33004KT P6SM FEW050
     FM291300 31007KT P6SM BKN100
     FM292000 31010G18KT P6SM VCTS SCT050CB BKN120=

USA.gov is the U.S. government's official web portal to all federal, state and local government web resources and services.